Weather in Letterkenny

Ireland     54°57′03″N   7°43′54″W
temp.,
°C
wind,
m/s
gust,
m/s
humid.,
%
clouds,
%
prec.,
mm/h
press.,
hPa
HPBL,
m
10 may, mon
mon1001:00+9sse61296100 0.8 984681
04:00+8se61294100 0.1 985621
07:00+8se51193100 0.1 986669
10:00+10sse5887100 0.0 986741
13:00+11sse5676100 0.1 987919
16:00+12sse468168 1.4 987935
19:00+11sse3689100 3.5 988373
22:00+9s2594100 2.2 991146
11 may, tue
tue1101:00+8s4996100 3.4 994609
04:00+7s4109179 0.9 997776
07:00+6s51087100 0.9 999645
10:00+9s696298 0.0 1001994
13:00+13sse585210 0.0 10021592
16:00+12se56645 0.1 1003956
19:00+11se47744 0.8 1003819
22:00+6e229256 0.1 100513
12 may, wed
wed1201:00+5ne1194100 0.1 100510
04:00+6n1598100 1.3 1004243
07:00+6sw1294100 1.9 1004103
10:00+7ssw229195 0.1 1005301
13:00+9ssw238279 0.3 1005585
16:00+12wsw126592 0.1 1005969
19:00+11n238337 0.6 1005214
22:00+7ne129699 0.6 100615
13 may, thu
thu1301:00+8ne1199100 2.1 100647
04:00+8e1198100 1.3 100640
07:00+8se259899 2.4 1007352
10:00+9se359041 0.1 1008452
13:00+12se457846 1.5 10081088
16:00+13ese457957 2.9 1008982
19:00+11ene4688100 5.1 1008629
22:00+7nne3697100 0.6 1010192
14 may, fri
fri1401:00+7nnw2499100 1.5 1009201
04:00+8ene4998100 2.0 1009562
07:00+7ene3897100 3.2 1010469
10:00+9e4688100 0.1 1011678
13:00+12e4571100 0.7 10111167
16:00+13e336696 0.6 10101180
19:00+11ene348592 1.5 1009472
22:00+7ene229444 0.1 101019